Time,TemperatureF,DewpointF,PressureIn,WindDirection,WindDirectionDegrees,WindSpeedMPH,WindSpeedGustMPH,Humidity,HourlyPrecipIn,Conditions,Clouds,dailyrainin,SoftwareType,DateUTC
2013-02-24 00:02:00,24.6,24.1,29.83,South,175,0.0,1.0,98,0.00,,,0.00,meteohub,2013-02-23 23:02:00,
2013-02-24 00:07:00,24.6,24.1,29.83,South,175,0.0,1.0,98,0.00,,,0.00,meteohub,2013-02-23 23:07:00,
2013-02-24 00:12:00,24.6,24.1,29.83,South,175,0.0,1.0,98,0.00,,,0.00,meteohub,2013-02-23 23:12:00,
2013-02-24 00:17:00,24.6,24.1,29.83,South,175,0.0,1.0,98,0.00,,,0.00,meteohub,2013-02-23 23:17:00,
2013-02-24 00:22:00,25.9,25.0,29.83,South,175,0.0,1.0,96,0.00,,,0.00,meteohub,2013-02-23 23:22:00,
2013-02-24 00:32:00,26.1,25.2,29.83,South,175,0.0,0.0,96,0.00,,,0.00,meteohub,2013-02-23 23:32:00,
2013-02-24 00:42:00,26.1,25.2,29.83,South,175,0.0,0.0,96,0.00,,,0.00,meteohub,2013-02-23 23:42:00,
2013-02-24 00:47:00,26.1,25.2,29.83,South,175,0.0,1.0,96,0.00,,,0.00,meteohub,2013-02-23 23:47:00,
2013-02-24 00:52:00,26.2,25.3,29.83,South,175,0.0,1.0,96,0.00,,,0.00,meteohub,2013-02-23 23:52:00,
2013-02-24 00:57:00,26.2,25.3,29.83,South,175,0.0,1.0,96,0.00,,,0.00,meteohub,2013-02-23 23:57:00,
2013-02-24 01:02:00,26.2,25.3,29.83,South,175,0.0,0.0,96,0.00,,,0.00,meteohub,2013-02-24 00:02:00,
2013-02-24 01:07:00,26.2,25.3,29.84,South,175,0.0,0.0,96,0.00,,,0.00,meteohub,2013-02-24 00:07:00,
2013-02-24 01:12:00,26.2,25.3,29.83,South,175,0.0,1.0,96,0.00,,,0.00,meteohub,2013-02-24 00:12:00,
2013-02-24 01:17:00,26.2,25.3,29.84,South,175,0.0,1.0,96,0.00,,,0.00,meteohub,2013-02-24 00:17:00,
2013-02-24 01:27:00,26.4,25.5,29.83,South,175,0.0,1.0,96,0.00,,,0.00,meteohub,2013-02-24 00:27:00,
2013-02-24 01:32:00,26.4,25.5,29.83,South,175,0.0,1.0,96,0.00,,,0.00,meteohub,2013-02-24 00:32:00,
2013-02-24 01:37:00,26.4,25.5,29.83,South,175,0.0,1.0,96,0.00,,,0.00,meteohub,2013-02-24 00:37:00,
2013-02-24 01:42:00,26.4,25.5,29.83,South,175,0.0,1.0,96,0.00,,,0.00,meteohub,2013-02-24 00:42:00,
2013-02-24 01:47:00,26.4,25.5,29.83,South,175,0.0,1.0,96,0.00,,,0.00,meteohub,2013-02-24 00:47:00,
2013-02-24 01:52:00,26.4,25.5,29.82,South,175,0.0,1.0,96,0.00,,,0.00,meteohub,2013-02-24 00:52:00,
2013-02-24 01:57:00,26.4,25.5,29.82,South,173,1.0,2.0,96,0.00,,,0.00,meteohub,2013-02-24 00:57:00,
2013-02-24 02:02:00,26.4,25.5,29.82,South,173,0.0,3.0,96,0.00,,,0.00,meteohub,2013-02-24 01:02:00,
2013-02-24 02:12:00,26.2,25.3,29.81,SSE,163,0.0,4.0,96,0.00,,,0.00,meteohub,2013-02-24 01:12:00,
2013-02-24 02:22:00,26.2,25.3,29.81,SSE,163,0.0,4.0,96,0.00,,,0.00,meteohub,2013-02-24 01:22:00,
2013-02-24 02:32:00,26.2,25.3,29.81,SSE,162,1.0,4.0,96,0.00,,,0.00,meteohub,2013-02-24 01:32:00,
2013-02-24 02:37:00,26.2,25.3,29.80,SSE,163,0.0,4.0,96,0.00,,,0.00,meteohub,2013-02-24 01:37:00,
2013-02-24 02:42:00,26.2,25.3,29.80,SSE,159,0.0,4.0,96,0.00,,,0.00,meteohub,2013-02-24 01:42:00,
2013-02-24 02:47:00,26.2,25.3,29.80,SSE,165,0.0,2.0,96,0.00,,,0.00,meteohub,2013-02-24 01:47:00,
2013-02-24 02:57:00,26.2,25.3,29.79,South,169,1.0,2.0,96,0.00,,,0.00,meteohub,2013-02-24 01:57:00,
2013-02-24 03:02:00,26.2,25.3,29.79,SSE,159,0.0,2.0,96,0.00,,,0.00,meteohub,2013-02-24 02:02:00,
2013-02-24 03:07:00,26.2,25.3,29.79,SSE,160,0.0,2.0,96,0.00,,,0.00,meteohub,2013-02-24 02:07:00,
2013-02-24 03:12:00,26.2,25.3,29.79,SSE,160,0.0,2.0,96,0.00,,,0.00,meteohub,2013-02-24 02:12:00,
2013-02-24 03:17:00,26.2,25.3,29.79,SSE,163,0.0,1.0,96,0.00,,,0.00,meteohub,2013-02-24 02:17:00,
2013-02-24 03:22:00,26.2,25.3,29.79,SSE,165,0.0,1.0,96,0.00,,,0.00,meteohub,2013-02-24 02:22:00,
2013-02-24 03:27:00,26.2,25.3,29.79,South,178,0.0,1.0,96,0.00,,,0.00,meteohub,2013-02-24 02:27:00,
2013-02-24 03:32:00,26.2,25.3,29.78,South,179,0.0,2.0,96,0.00,,,0.00,meteohub,2013-02-24 02:32:00,
2013-02-24 03:37:00,26.2,25.3,29.78,South,179,0.0,2.0,96,0.00,,,0.00,meteohub,2013-02-24 02:37:00,
2013-02-24 03:42:00,26.2,25.3,29.78,South,169,1.0,2.0,96,0.00,,,0.00,meteohub,2013-02-24 02:42:00,
2013-02-24 03:47:00,26.2,25.3,29.77,South,169,1.0,2.0,96,0.00,,,0.00,meteohub,2013-02-24 02:47:00,
2013-02-24 03:52:00,26.2,25.3,29.77,South,183,1.0,2.0,96,0.00,,,0.00,meteohub,2013-02-24 02:52:00,
2013-02-24 04:02:00,26.2,25.3,29.77,SSE,161,0.0,4.0,96,0.00,,,0.00,meteohub,2013-02-24 03:02:00,
2013-02-24 04:07:00,26.4,25.5,29.77,South,169,0.0,4.0,96,0.00,,,0.00,meteohub,2013-02-24 03:07:00,
2013-02-24 04:12:00,26.4,25.5,29.77,South,180,1.0,4.0,96,0.00,,,0.00,meteohub,2013-02-24 03:12:00,
2013-02-24 04:22:00,26.6,25.7,29.76,South,174,0.0,5.0,96,0.00,,,0.00,meteohub,2013-02-24 03:22:00,
2013-02-24 04:27:00,26.6,25.7,29.76,South,181,0.0,5.0,96,0.00,,,0.00,meteohub,2013-02-24 03:27:00,
2013-02-24 04:37:00,26.8,25.9,29.76,SSE,161,0.0,6.0,96,0.00,,,0.00,meteohub,2013-02-24 03:37:00,
2013-02-24 04:42:00,26.8,25.9,29.76,SSW,198,1.0,6.0,96,0.00,,,0.00,meteohub,2013-02-24 03:42:00,
2013-02-24 04:47:00,26.8,25.9,29.76,SSW,198,0.0,6.0,96,0.00,,,0.00,meteohub,2013-02-24 03:47:00,
2013-02-24 04:52:00,26.8,25.9,29.76,SW,217,0.0,2.0,96,0.00,,,0.00,meteohub,2013-02-24 03:52:00,
2013-02-24 04:57:00,26.8,25.9,29.76,SSE,163,1.0,3.0,96,0.00,,,0.00,meteohub,2013-02-24 03:57:00,
2013-02-24 05:02:00,27.0,26.1,29.76,SSE,163,1.0,3.0,96,0.00,,,0.00,meteohub,2013-02-24 04:02:00,
2013-02-24 05:07:00,27.0,26.1,29.75,SSE,163,0.0,3.0,96,0.00,,,0.00,meteohub,2013-02-24 04:07:00,
2013-02-24 05:12:00,27.0,26.1,29.75,SSE,163,0.0,3.0,96,0.00,,,0.00,meteohub,2013-02-24 04:12:00,
2013-02-24 05:17:00,27.0,26.1,29.75,SSE,163,1.0,1.0,96,0.00,,,0.00,meteohub,2013-02-24 04:17:00,
2013-02-24 05:22:00,27.0,26.1,29.75,SSE,155,0.0,2.0,96,0.00,,,0.00,meteohub,2013-02-24 04:22:00,
2013-02-24 05:27:00,27.1,26.2,29.75,SSE,165,1.0,3.0,96,0.00,,,0.00,meteohub,2013-02-24 04:27:00,
2013-02-24 05:32:00,27.3,26.4,29.75,SSE,165,0.0,4.0,96,0.00,,,0.00,meteohub,2013-02-24 04:32:00,
2013-02-24 05:42:00,27.3,26.4,29.75,South,176,1.0,4.0,96,0.00,,,0.00,meteohub,2013-02-24 04:42:00,
2013-02-24 05:47:00,27.5,26.6,29.75,South,179,1.0,4.0,96,0.00,,,0.00,meteohub,2013-02-24 04:47:00,
2013-02-24 05:52:00,27.7,26.6,29.75,South,172,0.0,4.0,96,0.00,,,0.00,meteohub,2013-02-24 04:52:00,
2013-02-24 06:02:00,27.9,26.8,29.74,SSE,152,0.0,2.0,96,0.00,,,0.00,meteohub,2013-02-24 05:02:00,
2013-02-24 06:07:00,27.9,26.8,29.74,SSE,168,0.0,4.0,96,0.00,,,0.00,meteohub,2013-02-24 05:07:00,
2013-02-24 06:12:00,27.9,26.8,29.74,SSE,167,0.0,4.0,96,0.00,,,0.00,meteohub,2013-02-24 05:12:00,
2013-02-24 06:17:00,27.9,26.8,29.74,SSE,156,0.0,4.0,96,0.00,,,0.00,meteohub,2013-02-24 05:17:00,
2013-02-24 06:22:00,27.9,26.8,29.74,SSE,163,0.0,2.0,96,0.00,,,0.00,meteohub,2013-02-24 05:22:00,
2013-02-24 06:27:00,28.0,27.0,29.74,South,169,0.0,2.0,96,0.00,,,0.00,meteohub,2013-02-24 05:27:00,
2013-02-24 06:32:00,28.0,27.3,29.75,South,171,0.0,2.0,97,0.00,,,0.00,meteohub,2013-02-24 05:32:00,
2013-02-24 06:37:00,28.2,27.5,29.74,South,182,0.0,2.0,97,0.00,,,0.00,meteohub,2013-02-24 05:37:00,
2013-02-24 06:42:00,28.6,27.5,29.74,South,181,1.0,2.0,96,0.00,,,0.00,meteohub,2013-02-24 05:42:00,
2013-02-24 06:47:00,28.6,27.9,29.74,SSE,166,1.0,2.0,97,0.00,,,0.00,meteohub,2013-02-24 05:47:00,
2013-02-24 06:52:00,28.8,28.0,29.74,South,173,1.0,2.0,97,0.00,,,0.00,meteohub,2013-02-24 05:52:00,
2013-02-24 06:57:00,28.9,28.2,29.74,South,184,0.0,2.0,97,0.00,,,0.00,meteohub,2013-02-24 05:57:00,
2013-02-24 07:02:00,29.1,28.4,29.74,South,190,2.0,2.0,97,0.00,,,0.00,meteohub,2013-02-24 06:02:00,
2013-02-24 07:07:00,29.1,28.4,29.74,SSW,198,2.0,2.0,97,0.00,,,0.00,meteohub,2013-02-24 06:07:00,
2013-02-24 07:17:00,29.5,28.8,29.74,SSW,193,1.0,4.0,97,0.00,,,0.00,meteohub,2013-02-24 06:17:00,
2013-02-24 07:22:00,29.7,28.9,29.74,South,175,0.0,4.0,97,0.00,,,0.00,meteohub,2013-02-24 06:22:00,
2013-02-24 07:27:00,29.7,28.9,29.75,South,187,0.0,4.0,97,0.00,,,0.00,meteohub,2013-02-24 06:27:00,
2013-02-24 07:32:00,29.7,28.9,29.75,SSE,160,0.0,4.0,97,0.00,,,0.00,meteohub,2013-02-24 06:32:00,
2013-02-24 07:37:00,29.8,29.1,29.75,SSE,163,1.0,2.0,97,0.00,,,0.00,meteohub,2013-02-24 06:37:00,
2013-02-24 07:42:00,29.8,29.1,29.75,SSE,161,1.0,2.0,97,0.00,,,0.00,meteohub,2013-02-24 06:42:00,
2013-02-24 07:52:00,30.0,29.3,29.75,South,173,1.0,2.0,97,0.00,,,0.00,meteohub,2013-02-24 06:52:00,
2013-02-24 07:57:00,30.0,29.3,29.75,SSW,195,0.0,2.0,97,0.00,,,0.00,meteohub,2013-02-24 06:57:00,
2013-02-24 08:02:00,30.2,29.5,29.75,SSW,198,0.0,2.0,97,0.00,,,0.00,meteohub,2013-02-24 07:02:00,
2013-02-24 08:07:00,30.4,29.7,29.76,SSW,193,0.0,3.0,97,0.00,,,0.00,meteohub,2013-02-24 07:07:00,
2013-02-24 08:12:00,30.4,29.7,29.76,South,191,0.0,3.0,97,0.00,,,0.00,meteohub,2013-02-24 07:12:00,
2013-02-24 08:17:00,30.6,29.8,29.76,South,179,0.0,3.0,97,0.00,,,0.00,meteohub,2013-02-24 07:17:00,
2013-02-24 08:22:00,30.6,29.8,29.76,South,179,0.0,2.0,97,0.00,,,0.00,meteohub,2013-02-24 07:22:00,
2013-02-24 08:27:00,30.6,29.8,29.76,South,178,0.0,2.0,97,0.00,,,0.00,meteohub,2013-02-24 07:27:00,
2013-02-24 08:32:00,30.6,29.8,29.76,South,176,0.0,2.0,97,0.00,,,0.00,meteohub,2013-02-24 07:32:00,
2013-02-24 08:37:00,30.6,29.8,29.76,South,176,1.0,2.0,97,0.00,,,0.00,meteohub,2013-02-24 07:37:00,
2013-02-24 08:42:00,30.7,30.0,29.76,South,176,0.0,2.0,97,0.00,,,0.00,meteohub,2013-02-24 07:42:00,
2013-02-24 08:47:00,30.7,30.0,29.76,South,176,0.0,1.0,97,0.00,,,0.00,meteohub,2013-02-24 07:47:00,
2013-02-24 08:52:00,30.7,30.0,29.76,South,176,0.0,1.0,97,0.00,,,0.00,meteohub,2013-02-24 07:52:00,
2013-02-24 08:57:00,30.9,30.2,29.76,South,176,0.0,1.0,97,0.00,,,0.00,meteohub,2013-02-24 07:57:00,
2013-02-24 09:02:00,30.9,30.2,29.76,South,176,0.0,2.0,97,0.00,,,0.00,meteohub,2013-02-24 08:02:00,
2013-02-24 09:12:00,30.9,30.2,29.77,South,176,0.0,1.0,97,0.00,,,0.00,meteohub,2013-02-24 08:12:00,
2013-02-24 09:17:00,31.1,30.4,29.77,South,176,0.0,1.0,97,0.00,,,0.00,meteohub,2013-02-24 08:17:00,
2013-02-24 09:27:00,31.3,30.6,29.77,South,176,0.0,1.0,97,0.00,,,0.00,meteohub,2013-02-24 08:27:00,
2013-02-24 09:37:00,31.5,30.7,29.78,South,176,0.0,1.0,97,0.00,,,0.00,meteohub,2013-02-24 08:37:00,
2013-02-24 09:47:00,31.8,31.1,29.78,South,176,0.0,1.0,97,0.00,,,0.00,meteohub,2013-02-24 08:47:00,
2013-02-24 09:52:00,32.0,31.3,29.78,South,176,0.0,1.0,97,0.00,,,0.00,meteohub,2013-02-24 08:52:00,
2013-02-24 09:57:00,32.2,31.5,29.78,South,175,0.0,1.0,97,0.00,,,0.00,meteohub,2013-02-24 08:57:00,
2013-02-24 10:02:00,32.4,31.6,29.79,South,176,0.0,1.0,97,0.00,,,0.00,meteohub,2013-02-24 09:02:00,
2013-02-24 10:07:00,32.4,31.6,29.79,NW,318,2.0,2.0,97,0.00,,,0.00,meteohub,2013-02-24 09:07:00,
2013-02-24 10:17:00,32.5,31.8,29.80,North,355,2.0,4.0,97,0.00,,,0.00,meteohub,2013-02-24 09:17:00,
2013-02-24 10:22:00,32.5,31.8,29.80,North,350,2.0,4.0,97,0.00,,,0.00,meteohub,2013-02-24 09:22:00,
2013-02-24 10:27:00,32.5,31.8,29.80,North,355,1.0,6.0,97,0.00,,,0.00,meteohub,2013-02-24 09:27:00,
2013-02-24 10:32:00,32.5,31.8,29.81,North,355,1.0,6.0,97,0.00,,,0.00,meteohub,2013-02-24 09:32:00,
2013-02-24 10:42:00,32.5,31.8,29.81,NW,319,4.0,6.0,97,0.00,,,0.00,meteohub,2013-02-24 09:42:00,
2013-02-24 10:47:00,32.4,31.6,29.81,NNE,26,1.0,6.0,97,0.00,,,0.00,meteohub,2013-02-24 09:47:00,
2013-02-24 10:57:00,32.5,31.8,29.81,NNW,342,2.0,6.0,97,0.00,,,0.00,meteohub,2013-02-24 09:57:00,
2013-02-24 11:02:00,32.7,32.0,29.81,ESE,108,1.0,5.0,97,0.00,,,0.00,meteohub,2013-02-24 10:02:00,
2013-02-24 11:12:00,33.4,32.4,29.81,North,355,2.0,7.0,96,0.00,,,0.00,meteohub,2013-02-24 10:12:00,
2013-02-24 11:17:00,33.6,32.5,29.81,NNW,346,0.0,7.0,96,0.00,,,0.00,meteohub,2013-02-24 10:17:00,
2013-02-24 11:22:00,33.8,32.5,29.81,West,269,0.0,5.0,95,0.00,,,0.00,meteohub,2013-02-24 10:22:00,
2013-02-24 11:27:00,34.0,32.7,29.81,North,5,1.0,4.0,95,0.00,,,0.00,meteohub,2013-02-24 10:27:00,
2013-02-24 11:32:00,34.2,32.5,29.81,North,5,2.0,4.0,94,0.00,,,0.00,meteohub,2013-02-24 10:32:00,
2013-02-24 11:42:00,34.5,32.7,29.82,NNW,330,0.0,3.0,93,0.01,,,0.01,meteohub,2013-02-24 10:42:00,
2013-02-24 11:52:00,34.5,32.4,29.81,NNE,19,1.0,4.0,92,0.01,,,0.01,meteohub,2013-02-24 10:52:00,
2013-02-24 12:02:00,34.9,32.7,29.81,NE,38,2.0,5.0,92,0.01,,,0.01,meteohub,2013-02-24 11:02:00,
2013-02-24 12:07:00,34.9,32.5,29.82,NNW,347,0.0,5.0,91,0.01,,,0.01,meteohub,2013-02-24 11:07:00,
2013-02-24 12:17:00,34.9,32.5,29.83,North,0,1.0,4.0,91,0.01,,,0.01,meteohub,2013-02-24 11:17:00,
2013-02-24 12:22:00,34.9,32.5,29.83,SSW,200,1.0,3.0,91,0.01,,,0.01,meteohub,2013-02-24 11:22:00,
2013-02-24 12:32:00,34.9,32.2,29.83,North,355,0.0,4.0,90,0.01,,,0.01,meteohub,2013-02-24 11:32:00,
2013-02-24 12:37:00,34.9,32.5,29.83,NE,53,1.0,4.0,91,0.01,,,0.01,meteohub,2013-02-24 11:37:00,
2013-02-24 12:42:00,34.9,32.2,29.83,North,5,0.0,4.0,90,0.00,,,0.01,meteohub,2013-02-24 11:42:00,
2013-02-24 12:52:00,35.1,32.7,29.83,NNW,345,1.0,2.0,91,0.00,,,0.01,meteohub,2013-02-24 11:52:00,
2013-02-24 12:57:00,34.9,32.0,29.83,NNW,342,0.0,4.0,89,0.00,,,0.01,meteohub,2013-02-24 11:57:00,
2013-02-24 13:02:00,34.5,31.8,29.83,North,0,5.0,5.0,90,0.00,,,0.01,meteohub,2013-02-24 12:02:00,
2013-02-24 13:07:00,34.3,31.6,29.83,NNW,347,4.0,5.0,90,0.00,,,0.01,meteohub,2013-02-24 12:07:00,
2013-02-24 13:12:00,34.0,31.3,29.83,NNW,340,2.0,6.0,90,0.00,,,0.01,meteohub,2013-02-24 12:12:00,
2013-02-24 13:17:00,33.8,31.1,29.83,NNW,334,1.0,6.0,90,0.00,,,0.01,meteohub,2013-02-24 12:17:00,
2013-02-24 13:22:00,33.8,31.5,29.83,NNW,344,1.0,6.0,91,0.00,,,0.01,meteohub,2013-02-24 12:22:00,
2013-02-24 13:32:00,33.6,31.3,29.83,NNW,346,2.0,5.0,91,0.00,,,0.01,meteohub,2013-02-24 12:32:00,
2013-02-24 13:42:00,33.4,31.1,29.84,NNW,346,0.0,7.0,91,0.00,,,0.01,meteohub,2013-02-24 12:42:00,
2013-02-24 13:52:00,33.6,31.3,29.84,NNW,348,1.0,5.0,91,0.00,,,0.01,meteohub,2013-02-24 12:52:00,
2013-02-24 14:02:00,33.6,30.9,29.85,NNW,346,3.0,5.0,90,0.00,,,0.01,meteohub,2013-02-24 13:02:00,
2013-02-24 14:07:00,33.4,30.7,29.84,NNE,19,2.0,5.0,90,0.00,,,0.01,meteohub,2013-02-24 13:07:00,
2013-02-24 14:12:00,33.4,31.1,29.84,NNW,345,2.0,5.0,91,0.00,,,0.01,meteohub,2013-02-24 13:12:00,
2013-02-24 14:17:00,33.4,30.7,29.84,North,355,0.0,5.0,90,0.00,,,0.01,meteohub,2013-02-24 13:17:00,
2013-02-24 14:22:00,33.6,31.3,29.83,ENE,78,2.0,5.0,91,0.00,,,0.01,meteohub,2013-02-24 13:22:00,
2013-02-24 14:32:00,34.0,31.6,29.84,North,0,0.0,5.0,91,0.00,,,0.01,meteohub,2013-02-24 13:32:00,
2013-02-24 14:42:00,34.3,31.6,29.84,NNE,13,1.0,5.0,90,0.00,,,0.01,meteohub,2013-02-24 13:42:00,
2013-02-24 14:52:00,34.5,31.8,29.84,SSE,157,0.0,5.0,90,0.00,,,0.01,meteohub,2013-02-24 13:52:00,
2013-02-24 14:57:00,34.5,31.8,29.84,North,0,0.0,5.0,90,0.00,,,0.01,meteohub,2013-02-24 13:57:00,
2013-02-24 15:02:00,34.7,32.0,29.84,North,0,0.0,5.0,90,0.01,,,0.02,meteohub,2013-02-24 14:02:00,
2013-02-24 15:07:00,34.7,31.8,29.84,North,0,0.0,4.0,89,0.01,,,0.02,meteohub,2013-02-24 14:07:00,
2013-02-24 15:17:00,34.3,31.5,29.85,North,5,1.0,3.0,89,0.01,,,0.02,meteohub,2013-02-24 14:17:00,
2013-02-24 15:22:00,34.3,31.5,29.85,NNW,346,0.0,3.0,89,0.02,,,0.02,meteohub,2013-02-24 14:22:00,
2013-02-24 15:27:00,34.2,31.3,29.85,North,350,0.0,3.0,89,0.02,,,0.02,meteohub,2013-02-24 14:27:00,
2013-02-24 15:32:00,34.2,31.3,29.85,North,350,0.0,3.0,89,0.02,,,0.02,meteohub,2013-02-24 14:32:00,
2013-02-24 15:37:00,34.2,31.3,29.85,North,351,0.0,3.0,89,0.02,,,0.02,meteohub,2013-02-24 14:37:00,
2013-02-24 15:42:00,34.2,31.5,29.86,North,349,1.0,4.0,90,0.02,,,0.03,meteohub,2013-02-24 14:42:00,
2013-02-24 15:47:00,34.2,31.5,29.86,North,349,0.0,4.0,90,0.02,,,0.03,meteohub,2013-02-24 14:47:00,
2013-02-24 15:57:00,34.2,31.5,29.86,North,349,0.0,2.0,90,0.02,,,0.03,meteohub,2013-02-24 14:57:00,
2013-02-24 16:02:00,34.2,31.8,29.86,North,349,0.0,2.0,91,0.02,,,0.03,meteohub,2013-02-24 15:02:00,
2013-02-24 16:07:00,34.3,31.6,29.86,North,349,0.0,1.0,90,0.02,,,0.04,meteohub,2013-02-24 15:07:00,
2013-02-24 16:17:00,34.2,31.5,29.86,North,349,0.0,2.0,90,0.02,,,0.04,meteohub,2013-02-24 15:17:00,
2013-02-24 16:27:00,34.2,31.8,29.86,North,349,0.0,2.0,91,0.02,,,0.04,meteohub,2013-02-24 15:27:00,
2013-02-24 16:37:00,34.0,31.6,29.86,North,349,0.0,2.0,91,0.02,,,0.05,meteohub,2013-02-24 15:37:00,
2013-02-24 16:47:00,33.8,31.5,29.87,NNE,26,0.0,2.0,91,0.02,,,0.05,meteohub,2013-02-24 15:47:00,
2013-02-24 16:57:00,33.6,31.5,29.87,NNE,26,0.0,1.0,92,0.02,,,0.05,meteohub,2013-02-24 15:57:00,
2013-02-24 17:02:00,33.6,31.3,29.87,NNE,26,0.0,1.0,91,0.01,,,0.05,meteohub,2013-02-24 16:02:00,
2013-02-24 17:07:00,33.4,31.3,29.87,NNE,26,0.0,1.0,92,0.01,,,0.05,meteohub,2013-02-24 16:07:00,
2013-02-24 17:12:00,33.4,31.3,29.87,NNE,26,0.0,1.0,92,0.01,,,0.05,meteohub,2013-02-24 16:12:00,
2013-02-24 17:17:00,33.4,31.3,29.87,NNE,26,0.0,1.0,92,0.01,,,0.05,meteohub,2013-02-24 16:17:00,
2013-02-24 17:22:00,33.4,31.3,29.87,NNE,31,0.0,1.0,92,0.01,,,0.05,meteohub,2013-02-24 16:22:00,
2013-02-24 17:32:00,33.3,31.5,29.88,SW,225,1.0,1.0,93,0.01,,,0.06,meteohub,2013-02-24 16:32:00,
2013-02-24 17:37:00,33.3,31.5,29.88,SW,234,0.0,2.0,93,0.01,,,0.06,meteohub,2013-02-24 16:37:00,
2013-02-24 17:42:00,33.1,31.3,29.89,SSW,196,0.0,2.0,93,0.01,,,0.06,meteohub,2013-02-24 16:42:00,
2013-02-24 17:47:00,33.1,31.3,29.88,SSW,194,2.0,2.0,93,0.01,,,0.06,meteohub,2013-02-24 16:47:00,
2013-02-24 17:52:00,32.9,31.3,29.88,SSW,196,0.0,2.0,94,0.01,,,0.06,meteohub,2013-02-24 16:52:00,
2013-02-24 17:57:00,32.7,31.1,29.89,SSW,196,0.0,2.0,94,0.01,,,0.06,meteohub,2013-02-24 16:57:00,
2013-02-24 18:02:00,32.7,31.1,29.89,SSW,195,1.0,2.0,94,0.01,,,0.06,meteohub,2013-02-24 17:02:00,
2013-02-24 18:12:00,32.5,31.3,29.89,South,169,1.0,3.0,95,0.01,,,0.06,meteohub,2013-02-24 17:12:00,
2013-02-24 18:22:00,32.5,31.3,29.89,SSE,167,0.0,4.0,95,0.01,,,0.06,meteohub,2013-02-24 17:22:00,
2013-02-24 18:27:00,32.5,31.3,29.89,SSE,167,0.0,4.0,95,0.00,,,0.06,meteohub,2013-02-24 17:27:00,
2013-02-24 18:37:00,32.4,31.1,29.90,South,183,1.0,2.0,95,0.00,,,0.06,meteohub,2013-02-24 17:37:00,
2013-02-24 18:42:00,32.4,31.3,29.90,South,183,0.0,2.0,96,0.00,,,0.06,meteohub,2013-02-24 17:42:00,
2013-02-24 18:47:00,32.4,31.1,29.90,SSE,168,0.0,2.0,95,0.00,,,0.06,meteohub,2013-02-24 17:47:00,
2013-02-24 18:57:00,32.4,31.3,29.90,SSE,168,1.0,2.0,96,0.00,,,0.06,meteohub,2013-02-24 17:57:00,
2013-02-24 19:07:00,32.4,31.3,29.90,South,187,1.0,2.0,96,0.00,,,0.06,meteohub,2013-02-24 18:07:00,
2013-02-24 19:12:00,32.4,31.3,29.90,South,178,0.0,2.0,96,0.00,,,0.06,meteohub,2013-02-24 18:12:00,
2013-02-24 19:17:00,32.4,31.3,29.90,South,178,1.0,2.0,96,0.00,,,0.06,meteohub,2013-02-24 18:17:00,
2013-02-24 19:27:00,32.4,31.3,29.89,SSE,167,1.0,4.0,96,0.00,,,0.06,meteohub,2013-02-24 18:27:00,
2013-02-24 19:32:00,32.4,31.3,29.89,South,173,0.0,4.0,96,0.00,,,0.06,meteohub,2013-02-24 18:32:00,
2013-02-24 19:42:00,32.4,31.3,29.89,South,180,1.0,4.0,96,0.00,,,0.06,meteohub,2013-02-24 18:42:00,
2013-02-24 19:52:00,32.4,31.3,29.89,South,169,0.0,4.0,96,0.00,,,0.06,meteohub,2013-02-24 18:52:00,
2013-02-24 19:57:00,32.4,31.3,29.90,South,187,2.0,4.0,96,0.00,,,0.06,meteohub,2013-02-24 18:57:00,
2013-02-24 20:07:00,32.4,31.3,29.90,South,178,1.0,3.0,96,0.00,,,0.06,meteohub,2013-02-24 19:07:00,
2013-02-24 20:17:00,32.4,31.6,29.91,South,178,0.0,1.0,97,0.00,,,0.06,meteohub,2013-02-24 19:17:00,
2013-02-24 20:27:00,32.5,31.8,29.91,South,178,0.0,2.0,97,0.00,,,0.06,meteohub,2013-02-24 19:27:00,
2013-02-24 20:37:00,32.5,31.8,29.91,South,178,0.0,2.0,97,0.01,,,0.06,meteohub,2013-02-24 19:37:00,
2013-02-24 20:47:00,32.7,32.0,29.91,South,178,1.0,1.0,97,0.01,,,0.06,meteohub,2013-02-24 19:47:00,
2013-02-24 20:52:00,32.7,32.0,29.91,South,178,1.0,1.0,97,0.01,,,0.06,meteohub,2013-02-24 19:52:00,
2013-02-24 21:02:00,32.7,32.0,29.91,South,178,0.0,1.0,97,0.01,,,0.06,meteohub,2013-02-24 20:02:00,
2013-02-24 21:07:00,32.7,32.0,29.91,South,178,0.0,1.0,97,0.01,,,0.06,meteohub,2013-02-24 20:07:00,
2013-02-24 21:12:00,32.7,32.0,29.91,South,178,0.0,1.0,97,0.01,,,0.06,meteohub,2013-02-24 20:12:00,
2013-02-24 21:17:00,32.7,32.0,29.91,South,178,0.0,1.0,97,0.01,,,0.06,meteohub,2013-02-24 20:17:00,
2013-02-24 21:27:00,32.9,32.2,29.91,South,178,0.0,0.0,97,0.01,,,0.06,meteohub,2013-02-24 20:27:00,
2013-02-24 21:37:00,32.9,32.2,29.91,South,178,0.0,1.0,97,0.00,,,0.06,meteohub,2013-02-24 20:37:00,
2013-02-24 21:42:00,32.9,32.2,29.91,South,178,0.0,1.0,97,0.00,,,0.06,meteohub,2013-02-24 20:42:00,
2013-02-24 21:47:00,33.1,32.4,29.91,South,178,1.0,1.0,97,0.00,,,0.06,meteohub,2013-02-24 20:47:00,
2013-02-24 21:52:00,33.1,32.4,29.91,South,178,0.0,1.0,97,0.00,,,0.06,meteohub,2013-02-24 20:52:00,
2013-02-24 21:57:00,33.1,32.4,29.91,South,178,0.0,1.0,97,0.00,,,0.06,meteohub,2013-02-24 20:57:00,
2013-02-24 22:02:00,33.1,32.4,29.91,South,178,0.0,1.0,97,0.00,,,0.06,meteohub,2013-02-24 21:02:00,
2013-02-24 22:07:00,33.1,32.4,29.91,South,178,0.0,1.0,97,0.00,,,0.06,meteohub,2013-02-24 21:07:00,
2013-02-24 22:17:00,33.1,32.4,29.91,South,178,0.0,1.0,97,0.00,,,0.06,meteohub,2013-02-24 21:17:00,
2013-02-24 22:27:00,33.3,32.5,29.91,South,178,0.0,0.0,97,0.00,,,0.06,meteohub,2013-02-24 21:27:00,
2013-02-24 22:32:00,33.3,32.5,29.91,South,178,0.0,1.0,97,0.00,,,0.06,meteohub,2013-02-24 21:32:00,
2013-02-24 22:42:00,33.3,32.5,29.91,South,178,0.0,1.0,97,0.00,,,0.06,meteohub,2013-02-24 21:42:00,
2013-02-24 22:52:00,33.4,32.7,29.91,South,178,0.0,2.0,97,0.00,,,0.06,meteohub,2013-02-24 21:52:00,
2013-02-24 22:57:00,33.4,32.7,29.91,South,178,0.0,2.0,97,0.00,,,0.06,meteohub,2013-02-24 21:57:00,
2013-02-24 23:02:00,33.4,32.7,29.91,South,178,0.0,2.0,97,0.00,,,0.06,meteohub,2013-02-24 22:02:00,
2013-02-24 23:07:00,33.4,32.7,29.91,South,178,0.0,1.0,97,0.00,,,0.06,meteohub,2013-02-24 22:07:00,
2013-02-24 23:12:00,33.4,32.7,29.91,South,178,0.0,2.0,97,0.00,,,0.06,meteohub,2013-02-24 22:12:00,
2013-02-24 23:17:00,33.4,32.7,29.92,South,178,0.0,2.0,97,0.00,,,0.06,meteohub,2013-02-24 22:17:00,
2013-02-24 23:22:00,33.4,32.7,29.92,South,184,0.0,2.0,97,0.00,,,0.06,meteohub,2013-02-24 22:22:00,
2013-02-24 23:27:00,33.4,32.7,29.92,South,183,0.0,2.0,97,0.00,,,0.06,meteohub,2013-02-24 22:27:00,
2013-02-24 23:32:00,33.4,32.7,29.92,South,183,0.0,2.0,97,0.00,,,0.06,meteohub,2013-02-24 22:32:00,
2013-02-24 23:37:00,33.4,32.7,29.92,South,184,0.0,2.0,97,0.00,,,0.06,meteohub,2013-02-24 22:37:00,
2013-02-24 23:42:00,33.4,32.7,29.93,South,184,0.0,1.0,97,0.00,,,0.06,meteohub,2013-02-24 22:42:00,
2013-02-24 23:47:00,33.6,32.9,29.93,South,183,0.0,1.0,97,0.00,,,0.06,meteohub,2013-02-24 22:47:00,
2013-02-24 23:52:00,33.6,32.9,29.93,South,184,0.0,1.0,97,0.00,,,0.06,meteohub,2013-02-24 22:52:00,
2013-02-24 23:57:00,33.6,32.9,29.93,South,184,0.0,1.0,97,0.00,,,0.06,meteohub,2013-02-24 22:57:00,